Flag for U.S.A. Weather past 2 weeks in Topeka, Kansas, U.S.A.

Now
92 °F

Sunny.


Feels Like: 102 °F
Forecast: 72 / 85 °F
Wind: 8 mph from South

Location: Philip Billard Municipal Airport

Current Time: Jul 28, 2015 at 8:29:19 PM

Latest Report: Jul 28, 2015 at 7:53 PM


Visibility: 10 mi

Pressure: 29.81 "Hg

Humidity: 56%

Dew point: 74 °F

Location of TopekaLocation

Historic Weather in Topeka — Graph

°F

Topeka temperature yesterday

Maximum temperature yesterday: 95 °F (at 4:53 PM)
Minimum temperature yesterday: 77 °F (at 5:53 AM)
Average temperature yesterday: 84 °F

Past Weeks' High & Low Weather Summary

 TemperatureHumidityPressure
High100 °F (Jul 24, 4:53 PM)97% (Jul 22, 4:53 AM)29.99 "Hg (Jul 22, 4:53 AM)
Low64 °F (Jul 22, 4:53 AM)44% (Jul 28, 4:53 PM)29.67 "Hg (Jul 13, 6:53 PM)
Average82 °F75%29.85 "Hg
* Reported Jul 13 6:53 PM — Jul 28 6:53 PM, Topeka, Weather by CustomWeather, © 2015

Note: Actual official high and low records may vary slightly from our data, if they occured in-between our weather recording intervals... More about our weather records

Advertising

Topeka weather history for previous 24 hours

 ConditionsComfort  
Time TempWeatherWind HumidityBarometerVisibility
6:53 PM
Tue, Jul 28
94 °FSunny.13 mph49%29.80 "Hg10 mi
5:53 PM96 °FSunny.16 mph44%29.81 "Hg10 mi
4:53 PM96 °FSunny.14 mph44%29.81 "Hg10 mi
3:53 PM96 °FSunny.18 mph46%29.82 "Hg10 mi
2:53 PM96 °FSunny.15 mph46%29.82 "Hg10 mi
1:53 PM95 °FSunny.13 mph49%29.83 "Hg10 mi
12:53 PM93 °FSunny.14 mph50%29.83 "Hg10 mi
11:53 AM92 °FSunny.13 mph52%29.84 "Hg10 mi
10:53 AM89 °FSunny.12 mph57%29.85 "Hg10 mi
9:53 AM87 °FSunny.8 mph63%29.84 "Hg10 mi
8:53 AM84 °FSunny.12 mph70%29.84 "Hg10 mi
7:53 AM82 °FSunny.7 mph74%29.82 "Hg10 mi
6:53 AM79 °FClear.6 mph84%29.82 "Hg10 mi
5:53 AM79 °FClear.5 mph84%29.82 "Hg10 mi
4:53 AM78 °FClear.5 mph87%29.82 "Hg10 mi
3:53 AM80 °FClear.5 mph81%29.82 "Hg10 mi
2:53 AM81 °FClear.7 mph77%29.82 "Hg10 mi
1:53 AM82 °FClear.8 mph74%29.83 "Hg10 mi
12:53 AM83 °FClear.9 mph72%29.83 "Hg10 mi
11:53 PM
Mon, Jul 27
84 °FClear.10 mph70%29.84 "Hg10 mi
10:53 PM83 °FClear.7 mph72%29.85 "Hg10 mi
9:53 PM83 °FClear.8 mph72%29.83 "Hg10 mi
8:53 PM85 °FSunny.7 mph68%29.82 "Hg10 mi
Weather by CustomWeather, © 2015

See weather overviewHow to use our weather pages